Simultaneous Nadir Overpasses (SNOs) Predictions

Prediction of SNOs between METOP-C and LANDSAT-8 Satellite Orbit:

Table of predicted SNOs for the next 14.0 days since TLE Epoch: 8/17/2019
Index Date (METOP-C) Time (METOP-C) Lat,Lon (METOP-C) SZA (METOP-C ) Date (LANDSAT-8) Time (LANDSAT-8) Lat,Lon (LANDSAT-8) SZA (LANDSAT-8 ) Distance(km) Time Diff (sec)
1 08/19/2019 08:14:06 -81.13, -83.62 109.69 08/19/2019 08:14:49 -81.13, -83.52 109.66 1.79 43
2 08/19/2019 09:04:45 81.16, 84.58 70.44 08/19/2019 09:04:14 81.16, 84.56 70.43 0.41 31
3 08/22/2019 03:48:28 -81.13, -17.04 108.72 08/22/2019 03:49:05 -81.13, -17.05 108.71 0.23 37
4 08/22/2019 04:39:07 81.16, 151.12 71.40 08/22/2019 04:38:30 81.16, 151.01 71.37 1.89 37
5 08/24/2019 23:22:50 -81.14, 49.55 107.73 08/24/2019 23:23:21 -81.13, 49.40 107.74 2.60 31
6 08/25/2019 00:13:30 81.15,-142.73 72.34 08/25/2019 00:12:46 81.16,-142.57 72.34 2.84 44
7 08/27/2019 18:57:13 -81.13, 115.76 106.76 08/27/2019 18:57:37 -81.13, 115.83 106.75 1.28 24
8 08/27/2019 19:47:51 81.16, -76.20 73.34 08/27/2019 19:47:01 81.16, -76.16 73.33 0.66 50
9 08/30/2019 14:31:34 -81.14,-177.65 105.73 08/30/2019 14:31:52 -81.13,-177.75 105.73 1.86 18




NCC Satellite Simultaneous Nadir Overpasses (SNOs) Prediction Service
